Weather History for Chipley, FL

Change the Weather History Date:

Monday, March 4, 2013

  Actual Average (KMAI) Record (KMAI)
Temperature  
Mean Temperature 57 °F 58 °F  
Max Temperature 68 °F 70 °F 78 °F (2004)
Min Temperature 46 °F 46 °F 27 °F (2002)
Degree Days  
Heating Degree Days 8    
Month to date heating degree days  
Since 1 July heating degree days  
Cooling Degree Days 0    
Month to date cooling degree days  
Year to date cooling degree days  
Growing Degree Days 7 (Base 50)    
Moisture  
Dew Point 46 °F    
Average Humidity 64    
Maximum Humidity 77    
Minimum Humidity 49    
Precipitation  
Precipitation 0.00 in 0.15 in 1.62 in (2008)
Month to date precipitation 0.57  
Year to date precipitation 10.55  
Sea Level Pressure  
Sea Level Pressure 30.07 in    
Wind  
Wind Speed 9 mph (SSE)    
Max Wind Speed 17 mph    
Max Gust Speed 26 mph    
Visibility 10 miles    
Events      
T = Trace of Precipitation, MM = Missing Value Source: NWS Daily Summary

Daily Weather History Graph

Daily Weather History Graph

Search for Another Location

Airport:

Trip Planner

Search our weather history database for the weather conditions in past years. The results will help you decide how hot, cold, wet, or windy it might be!

Date:

Astronomy

Mar. 04, 2013 Rise Set
Actual Time 6:05 AM CST 5:43 PM CST
Civil Twilight 5:41 AM CST 6:07 PM CST
Nautical Twilight 5:13 AM CST 6:35 PM CST
Astronomical Twilight 4:45 AM CST 7:03 PM CST
Moon No Moon Rise 10:41 AM CST (3/4)
Length of Visible Light 12h 26m
Length of Day
11h 38m
Waning Gibbous, 52% of the Moon is Illuminated
Mar 4
Waning Gibbous
Mar 4
Last Quarter
Mar 11
New
Mar 19
First Quarter
Mar 27
Full

Hourly Weather History & Observations

Time (CST) Temp. Windchill Dew Point Humidity Pressure Visibility Wind Dir Wind Speed Gust Speed Precip Events Conditions
12:15 AM 48.2 °F - 35.6 °F 62% 30.16 in 10.0 mi South 4.6 mph - N/A   Clear
12:35 AM 46.4 °F 45.2 °F 37.4 °F 71% 30.16 in 10.0 mi South 3.5 mph - N/A   Unknown
12:55 AM 46.4 °F 45.2 °F 37.4 °F 71% 30.16 in 10.0 mi South 3.5 mph - N/A   Clear
1:35 AM 46.4 °F 43.5 °F 37.4 °F 71% 30.14 in 10.0 mi South 5.8 mph - N/A   Clear
1:55 AM 46.4 °F 43.5 °F 35.6 °F 66% 30.14 in 10.0 mi SSE 5.8 mph - N/A   Clear
2:15 AM 46.4 °F 43.5 °F 35.6 °F 66% 30.14 in 10.0 mi SSE 5.8 mph - N/A   Clear
2:35 AM 46.4 °F 44.3 °F 35.6 °F 66% 30.13 in 10.0 mi SSE 4.6 mph - N/A   Clear
2:55 AM 46.4 °F 44.3 °F 37.4 °F 71% 30.13 in 10.0 mi SSE 4.6 mph - N/A   Clear
3:15 AM 46.4 °F 43.5 °F 37.4 °F 71% 30.13 in 10.0 mi SSE 5.8 mph - N/A   Clear
3:35 AM 48.2 °F - 37.4 °F 66% 30.13 in 10.0 mi SSE 6.9 mph - N/A   Clear
3:55 AM 48.2 °F - 37.4 °F 66% 30.12 in 10.0 mi SSE 5.8 mph - N/A   Clear
4:15 AM 48.2 °F - 37.4 °F 66% 30.13 in 10.0 mi South 5.8 mph - N/A   Clear
4:35 AM 48.2 °F - 39.2 °F 71% 30.13 in 10.0 mi SSE 6.9 mph - N/A   Clear
4:55 AM 48.2 °F - 39.2 °F 71% 30.12 in 10.0 mi SSE 8.1 mph - N/A   Clear
5:15 AM 48.2 °F - 37.4 °F 66% 30.11 in 10.0 mi SSE 8.1 mph - N/A   Clear
5:55 AM 46.4 °F 43.5 °F 39.2 °F 76% 30.12 in 10.0 mi SE 5.8 mph - N/A   Clear
6:15 AM 48.2 °F - 39.2 °F 71% 30.11 in 10.0 mi SSE 9.2 mph - N/A   Clear
6:35 AM 48.2 °F - 39.2 °F 71% 30.12 in 10.0 mi SSE 9.2 mph - N/A   Clear
6:55 AM 50.0 °F - 39.2 °F 66% 30.13 in 10.0 mi SE 5.8 mph - N/A   Clear
7:15 AM 50.0 °F - 41.0 °F 71% 30.13 in 10.0 mi SSE 5.8 mph - N/A   Clear
7:35 AM 50.0 °F - 41.0 °F 71% 30.13 in 10.0 mi SSE 5.8 mph - N/A   Clear
7:55 AM 51.8 °F - 41.0 °F 67% 30.13 in 10.0 mi SSE 5.8 mph - N/A   Clear
8:15 AM 51.8 °F - 42.8 °F 71% 30.14 in 10.0 mi SSE 6.9 mph - N/A   Clear
8:35 AM 55.4 °F - 44.6 °F 67% 30.14 in 10.0 mi SSE 9.2 mph - N/A   Clear
8:55 AM 57.2 °F - 44.6 °F 63% 30.14 in 10.0 mi SSE 11.5 mph - N/A   Clear
9:15 AM 59.0 °F - 44.6 °F 59% 30.15 in 10.0 mi South 9.2 mph 17.3 mph N/A   Clear
9:35 AM 60.8 °F - 46.4 °F 59% 30.14 in 10.0 mi SSE 13.8 mph 23.0 mph N/A   Clear
9:55 AM 62.6 °F - 46.4 °F 55% 30.13 in 10.0 mi South 17.3 mph 24.2 mph N/A   Clear
10:15 AM 62.6 °F - 46.4 °F 55% 30.13 in 10.0 mi South 11.5 mph 21.9 mph N/A   Scattered Clouds
10:35 AM 64.4 °F - 46.4 °F 52% 30.12 in 9.0 mi South 12.7 mph 23.0 mph N/A   Partly Cloudy
10:55 AM 64.4 °F - 46.4 °F 52% 30.12 in 10.0 mi South 15.0 mph 25.3 mph N/A   Mostly Cloudy
11:15 AM 64.4 °F - 46.4 °F 52% 30.11 in 10.0 mi South 16.1 mph 24.2 mph N/A   Scattered Clouds
11:35 AM 66.2 °F - 46.4 °F 49% 30.10 in 9.0 mi South 15.0 mph 23.0 mph N/A   Scattered Clouds
11:55 AM 66.2 °F - 46.4 °F 49% 30.10 in 10.0 mi South 15.0 mph 24.2 mph N/A   Mostly Cloudy
12:15 PM 64.4 °F - 46.4 °F 52% 30.09 in 10.0 mi South 12.7 mph 21.9 mph N/A   Overcast
12:55 PM 66.2 °F - 46.4 °F 49% 30.07 in 10.0 mi South 12.7 mph 24.2 mph N/A   Overcast
1:15 PM 66.2 °F - 46.4 °F 49% 30.06 in 10.0 mi South 13.8 mph 25.3 mph N/A   Mostly Cloudy
1:35 PM 66.2 °F - 48.2 °F 52% 30.05 in 10.0 mi South 15.0 mph 24.2 mph N/A   Overcast
1:55 PM 66.2 °F - 48.2 °F 52% 30.04 in 10.0 mi South 13.8 mph 25.3 mph N/A   Overcast
2:15 PM 68.0 °F - 48.2 °F 49% 30.03 in 10.0 mi South 16.1 mph 23.0 mph N/A   Overcast
2:35 PM 66.2 °F - 48.2 °F 52% 30.02 in 10.0 mi South 12.7 mph 25.3 mph N/A   Mostly Cloudy
2:55 PM 68.0 °F - 48.2 °F 49% 30.02 in 10.0 mi South 15.0 mph 21.9 mph N/A   Overcast
3:15 PM 68.0 °F - 48.2 °F 49% 30.02 in 10.0 mi South 13.8 mph 23.0 mph N/A   Overcast
3:35 PM 68.0 °F - 48.2 °F 49% 30.02 in 10.0 mi South 15.0 mph 20.7 mph N/A   Overcast
3:55 PM 68.0 °F - 50.0 °F 52% 30.02 in 10.0 mi South 16.1 mph 20.7 mph N/A   Mostly Cloudy
4:15 PM 68.0 °F - 51.8 °F 56% 30.01 in 9.0 mi South 12.7 mph 21.9 mph N/A   Mostly Cloudy
4:35 PM 66.2 °F - 51.8 °F 60% 30.01 in 10.0 mi South 16.1 mph 26.5 mph N/A   Mostly Cloudy
4:55 PM 66.2 °F - 51.8 °F 60% 30.01 in 10.0 mi South 15.0 mph 20.7 mph N/A   Mostly Cloudy
5:15 PM 66.2 °F - 51.8 °F 60% 30.01 in 10.0 mi South 13.8 mph 19.6 mph N/A   Overcast
5:35 PM 66.2 °F - 51.8 °F 60% 30.00 in 10.0 mi South 11.5 mph 18.4 mph N/A   Overcast
5:55 PM 64.4 °F - 51.8 °F 64% 30.00 in 10.0 mi South 10.4 mph - N/A   Unknown
6:15 PM 64.4 °F - 53.6 °F 68% 30.00 in 10.0 mi South 11.5 mph - N/A   Mostly Cloudy
6:35 PM 64.4 °F - 53.6 °F 68% 30.01 in 10.0 mi South 9.2 mph - N/A   Overcast
6:55 PM 64.4 °F - 53.6 °F 68% 30.00 in 10.0 mi South 12.7 mph 18.4 mph N/A   Overcast
7:15 PM 64.4 °F - 53.6 °F 68% 29.99 in 10.0 mi SSE 12.7 mph 17.3 mph N/A   Mostly Cloudy
7:35 PM 62.6 °F - 53.6 °F 72% 29.99 in 10.0 mi South 9.2 mph 17.3 mph N/A   Partly Cloudy
7:55 PM 62.6 °F - 53.6 °F 72% 30.00 in 10.0 mi South 8.1 mph 16.1 mph N/A   Scattered Clouds
8:15 PM 62.6 °F - 53.6 °F 72% 29.98 in 10.0 mi SSE 12.7 mph 16.1 mph N/A   Partly Cloudy
8:35 PM 62.6 °F - 53.6 °F 72% 29.99 in 10.0 mi South 9.2 mph 17.3 mph N/A   Partly Cloudy
8:55 PM 62.6 °F - 53.6 °F 72% 29.99 in 10.0 mi South 12.7 mph 18.4 mph N/A   Mostly Cloudy
9:15 PM 62.6 °F - 55.4 °F 77% 29.98 in 10.0 mi South 15.0 mph 19.6 mph N/A   Mostly Cloudy
9:35 PM 62.6 °F - 55.4 °F 77% 29.99 in 10.0 mi South 11.5 mph 17.3 mph N/A   Overcast
9:55 PM 62.6 °F - 55.4 °F 77% 29.99 in 10.0 mi South 11.5 mph 18.4 mph N/A   Mostly Cloudy
10:15 PM 62.6 °F - 55.4 °F 77% 30.00 in 10.0 mi South 11.5 mph - N/A   Mostly Cloudy
10:35 PM 62.6 °F - 55.4 °F 77% 29.99 in 10.0 mi SSE 11.5 mph 18.4 mph N/A   Scattered Clouds
10:55 PM 62.6 °F - 55.4 °F 77% 29.98 in 10.0 mi South 11.5 mph - N/A   Scattered Clouds
11:15 PM 62.6 °F - 55.4 °F 77% 29.98 in 10.0 mi South 11.5 mph 17.3 mph N/A   Scattered Clouds
11:35 PM 62.6 °F - 55.4 °F 77% 29.98 in 10.0 mi South 9.2 mph - N/A   Clear
11:55 PM 62.6 °F - 55.4 °F 77% 29.98 in 10.0 mi South 10.4 mph - N/A   Clear